Location: Burbank
(38.7788°N, 114.0429°W)
Time: 23:13:08
(UTC+00:00)

Transit 2A - Pass Details

Date: 16 May 2026
Orbit: 595 x 949 km, 66.7° (Epoch: 5 June)

Event Time Altitude Azimuth Distance (km) Brightness Sun altitude
Rises 21:20:53 0° 167° (SSE) 3,599 9.6 59.5°
Reaches altitude 10° 21:24:06 10° 152° (SSE) 2,644 8.9 59.0°
Maximum altitude 21:28:31 21° 106° (ESE) 1,952 8.1 58.3°
Drops below altitude 10° 21:32:47 10° 60° (ENE) 2,554 8.5 57.5°
Sets 21:35:48 0° 45° (NE) 3,442 9.1 57.0°
